[[{"header":{"parameterUnit":"m.s-1","parameterCategory":1,"la1":30.2991,"la2":30.254,"lo1":-89.0895,"lo2":-89.0444,"dy":0.0017,"dx":0.0017,"nx":28,"ny":28,"refTime":"2025-03-14T03:00:00:Z","depth":0,"parameterNumber":2,"parameterNumberName":"U-component_of_WINDS"},"data":[0,0,0,0,0,0,0,0,0,0,0,0,0,0,0,0,0,0,0,0,0,0,0,0,0,0,0,0,0,0,0,0,0,0,0,0,0,0,0,0,0,0,0,0,0,0,0,0,0,0,0,0,0,0,0,0,0,0,-1.0934,-1.0935,0,-1.1035,-1.1037,-1.1038,-1.1064,-1.1063,-1.1063,-1.1062,-1.1167,-1.117,-1.1174,0,0,0,0,0,0,0,0,0,0,0,0,0,-1.0766,-1.0768,-1.0934,-1.0936,-1.0937,-1.1035,-1.1037,-1.1038,-1.1064,-1.1063,-1.1063,-1.1062,-1.1166,-1.117,-1.1174,0,0,0,0,0,0,0,0,0,0,0,0,0,-1.085,-1.0769,-1.0934,-1.0962,-1.0965,-1.1035,-1.1037,-1.1038,-1.1064,-1.1063,-1.1062,-1.1061,-1.1164,-1.1169,-1.1174,-1.1224,0,0,-1.119,-1.1192,0,0,0,0,0,0,0,0,-1.0845,-1.0856,-1.0956,-1.096,-1.0964,-1.1036,-1.1016,-1.1101,-1.1064,-1.1027,-1.1062,-1.1061,-1.1124,-1.1133,-1.1154,-1.1229,-1.1234,-1.119,-1.1193,-1.1196,-1.1197,0,0,0,0,0,0,0,-1.0839,-1.0852,-1.0974,-1.0958,-1.0962,-1.097,-1.0981,-1.1032,-1.108,-1.103,-1.1032,-1.1044,-1.1126,-1.1149,-1.1156,-1.1235,-1.119,-1.1195,-1.1198,-1.12,-1.1358,-1.1359,0,0,0,0,0,0,-1.0828,-1.0847,-1.0971,-1.0977,-1.0901,-1.0973,-1.0986,-1.1014,-1.1079,-1.1088,-1.1044,-1.1044,-1.1141,-1.115,-1.116,-1.1223,-1.1196,-1.12,-1.1203,-1.1357,-1.1358,-1.1359,0,0,0,0,0,0,-1.0825,-1.0839,-1.0967,-1.0913,-1.093,-1.0977,-1.1009,-1.1016,-1.1039,-1.109,-1.1099,-1.1058,-1.114,-1.1153,-1.1208,-1.1227,-1.1203,-1.1207,-1.1355,-1.1357,-1.1359,-1.1349,0,0,0,0,0,0,-1.082,-1.0838,-1.0857,-1.0913,-1.0932,-1.1013,-1.101,-1.1019,-1.1047,-1.1049,-1.1105,-1.1114,-1.114,-1.1201,-1.1213,-1.1233,-1.1211,-1.1354,-1.1356,-1.1358,-1.1348,-1.135,-1.1352,0,0,0,0,0,-1.0814,-1.085,-1.0858,-1.0872,-1.0957,-1.1014,-1.1025,-1.1054,-1.1049,-1.1069,-1.1102,-1.1112,-1.1223,-1.1206,-1.1221,-1.1242,-1.1353,-1.1355,-1.1358,-1.1347,-1.135,-1.1352,0,0,0,0,0,0,-1.0795,-1.0858,-1.0867,-1.0923,-1.0963,-1.1018,-1.1044,-1.1056,-1.1099,-1.1098,-1.1134,-1.1146,-1.1199,-1.1227,-1.1207,-1.1295,-1.1288,-1.1294,-1.1274,-1.1278,-1.128,-1.1272,-1.1215,0,0,0,0,0,-1.0797,-1.0838,-1.0891,-1.0935,-1.0955,-1.0996,-1.1022,-1.1041,-1.1084,-1.1101,-1.1138,-1.118,-1.1224,-1.1253,-1.1296,-1.1352,-1.1365,-1.1375,-1.1377,-1.1378,-1.1382,-1.1414,-1.1419,-1.1368,-1.1368,-1.1368,0,0,-1.0803,-1.0842,-1.0866,-1.0932,-1.0966,-1.1007,-1.101,-1.1054,-1.1085,-1.1108,-1.1162,-1.1191,-1.124,-1.1296,-1.1322,-1.132,-1.14,-1.1382,-1.1382,-1.1386,-1.1417,-1.1422,-1.1426,-1.137,-1.1369,-1.1369,0,0,-1.0834,-1.0868,-1.0908,-1.0941,-1.0992,-1.1019,-1.1029,-1.1083,-1.1102,-1.1157,-1.1176,-1.1214,-1.1289,-1.1323,-1.1351,-1.1395,-1.1407,-1.1409,-1.142,-1.145,-1.1454,-1.1458,-1.1474,-1.1479,-1.1413,-1.1413,-1.1413,0,-1.0834,-1.0897,-1.0927,-1.097,-1.0999,-1.1022,-1.1063,-1.1095,-1.1157,-1.1176,-1.1173,-1.1269,-1.1303,-1.1368,-1.1378,-1.14,-1.1412,-1.1402,-1.1451,-1.1455,-1.1459,-1.1474,-1.148,-1.1413,-1.1413,-1.1413,-1.1413,0,-1.0895,-1.0938,-1.0965,-1.1024,-1.1056,-1.1098,-1.1135,-1.1164,-1.1181,-1.1209,-1.1265,-1.1307,-1.136,-1.1377,-1.1394,-1.1444,-1.1441,-1.1444,-1.1438,-1.1463,-1.1478,-1.1484,-1.1413,-1.1413,-1.1413,-1.1413,0,0,-1.0916,-1.0991,-1.1001,-1.1028,-1.1085,-1.112,-1.1163,-1.1214,-1.1238,-1.1281,-1.1318,-1.1382,-1.1386,-1.1417,-1.1438,-1.1465,-1.1497,-1.1465,-1.1466,-1.1469,-1.1554,-1.1551,-1.1557,-1.1505,-1.1507,-1.1508,-1.155,0,-1.0953,-1.1031,-1.106,-1.1124,-1.1164,-1.1187,-1.1225,-1.1264,-1.1292,-1.1331,-1.1361,-1.1406,-1.1407,-1.1426,-1.1454,-1.1487,-1.1514,-1.1485,-1.154,-1.1542,-1.1526,-1.1565,-1.1562,-1.1599,-1.1556,-1.1557,-1.1558,0,-1.1007,-1.105,-1.1117,-1.117,-1.1188,-1.1221,-1.1271,-1.1308,-1.1354,-1.1372,-1.1407,-1.1426,-1.1473,-1.1465,-1.153,-1.1509,-1.1534,-1.1554,-1.1556,-1.1561,-1.1551,-1.1571,-1.1612,-1.1618,-1.1568,-1.1567,-1.1566,0,-1.1015,-1.1089,-1.1139,-1.1162,-1.1225,-1.1248,-1.1275,-1.132,-1.1349,-1.1393,-1.1412,-1.1461,-1.1487,-1.1525,-1.1557,-1.1548,-1.1619,-1.1613,-1.1635,-1.1634,-1.1649,-1.1647,-1.1694,-1.1666,-1.1666,-1.1666,-1.1665,0,-1.1053,-1.1094,-1.1144,-1.1174,-1.122,-1.1254,-1.1299,-1.1328,-1.1368,-1.1405,-1.1428,-1.1463,-1.1504,-1.1543,-1.1569,-1.1619,-1.1631,-1.1647,-1.1653,-1.1645,-1.1642,-1.1661,-1.1659,-1.1667,-1.1667,-1.1666,-1.1666,0,-1.1069,-1.1105,-1.1161,-1.1216,-1.1231,-1.1262,-1.131,-1.1341,-1.1369,-1.1416,-1.1429,-1.1474,-1.1522,-1.1559,-1.1621,-1.1639,-1.1692,-1.1698,-1.1676,-1.1679,-1.1698,-1.1696,-1.1758,-1.1767,-1.1733,-1.1734,-1.1734,0,-1.1091,-1.1123,-1.1181,-1.1207,-1.1235,-1.1277,-1.1307,-1.1341,-1.1371,-1.1426,-1.1451,-1.15,-1.1542,-1.1618,-1.1657,-1.1705,-1.1713,-1.1731,-1.172,-1.171,-1.1712,-1.171,-1.1713,-1.1732,-1.1732,-1.1733,-1.1733,0,-1.1126,-1.1142,-1.1183,-1.1231,-1.1266,-1.1306,-1.1346,-1.1366,-1.1408,-1.1441,-1.149,-1.1522,-1.1586,-1.1635,-1.1687,-1.1716,-1.1732,-1.1736,-1.1744,-1.1734,-1.172,-1.1727,-1.1679,-1.1734,-1.1734,-1.1734,-1.1734,-1.1734,-1.1146,-1.1174,-1.122,-1.1266,-1.13,-1.1336,-1.1368,-1.1401,-1.1442,-1.1497,-1.1515,-1.1566,-1.1612,-1.1683,-1.1713,-1.1753,-1.1753,-1.1764,-1.1767,-1.1769,-1.1768,-1.1714,-1.1763,-1.1763,-1.1763,-1.1763,-1.1763,0,-1.1181,-1.1211,-1.1253,-1.1308,-1.1344,-1.1356,-1.1401,-1.143,-1.1474,-1.1516,-1.1556,-1.1613,-1.1661,-1.1703,-1.1753,-1.1778,-1.1786,-1.1789,-1.1788,-1.1794,-1.1765,-1.1754,-1.1782,-1.1782,-1.1782,-1.1782,-1.1782,-1.1782,-1.1204,-1.1253,-1.1275,-1.1341,-1.1372,-1.1422,-1.1446,-1.1481,-1.1514,-1.1576,-1.1616,-1.1643,-1.1685,-1.1738,-1.1783,-1.1794,-1.1811,-1.1813,-1.1826,-1.1798,-1.1796,-1.1794,-1.1783,-1.1817,-1.1817,-1.1851,-1.1852,-1.1852]},{"header":{"parameterUnit":"m.s-1","parameterCategory":1,"la1":30.2991,"la2":30.254,"lo1":-89.0895,"lo2":-89.0444,"dy":0.0017,"dx":0.0017,"nx":28,"ny":28,"refTime":"2025-03-14T03:00:00:Z","depth":0,"parameterNumber":3,"parameterNumberName":"V-component_of_WINDS"},"data":[0,0,0,0,0,0,0,0,0,0,0,0,0,0,0,0,0,0,0,0,0,0,0,0,0,0,0,0,0,0,0,0,0,0,0,0,0,0,0,0,0,0,0,0,0,0,0,0,0,0,0,0,0,0,0,0,0,0,3.3178,3.3177,0,3.3084,3.3083,3.3082,3.3022,3.3022,3.3022,3.3021,3.2922,3.292,3.2918,0,0,0,0,0,0,0,0,0,0,0,0,0,3.3301,3.3299,3.3178,3.3177,3.3176,3.3085,3.3083,3.3082,3.3022,3.3022,3.3021,3.3021,3.2923,3.292,3.2917,0,0,0,0,0,0,0,0,0,0,0,0,0,3.3232,3.3299,3.3178,3.3135,3.313,3.3085,3.3083,3.3082,3.3022,3.3022,3.3021,3.3021,3.2924,3.292,3.2917,3.2906,0,0,3.2906,3.2905,0,0,0,0,0,0,0,0,3.3236,3.3227,3.3142,3.3138,3.3132,3.3065,3.309,3.3023,3.3023,3.3063,3.3021,3.3021,3.297,3.2962,3.2946,3.2902,3.2897,3.2906,3.2904,3.2903,3.2902,0,0,0,0,0,0,0,3.3241,3.3231,3.3141,3.3141,3.3135,3.3119,3.3109,3.3077,3.302,3.306,3.3055,3.3045,3.2967,3.2949,3.2943,3.2896,3.2906,3.2903,3.2901,3.29,3.2839,3.284,0,0,0,0,0,0,3.3253,3.3235,3.3144,3.3138,3.3184,3.3117,3.3106,3.3087,3.3021,3.301,3.3046,3.3043,3.2956,3.2947,3.2939,3.2924,3.2903,3.2899,3.2897,3.2839,3.2839,3.284,0,0,0,0,0,0,3.3256,3.3245,3.3148,3.3185,3.3172,3.3116,3.3095,3.3085,3.3068,3.301,3.2999,3.3039,3.2955,3.2944,3.2916,3.2919,3.2898,3.2895,3.2838,3.2839,3.284,3.2892,0,0,0,0,0,0,3.3259,3.3247,3.3243,3.3186,3.317,3.3126,3.3095,3.3084,3.3062,3.3058,3.3001,3.2991,3.2954,3.2921,3.2912,3.2914,3.2892,3.2838,3.2839,3.2839,3.2889,3.2894,3.2898,0,0,0,0,0,3.3264,3.326,3.3243,3.3232,3.3164,3.3127,3.3117,3.3076,3.3063,3.3058,3.3021,3.2992,3.292,3.2919,3.2908,3.2909,3.2837,3.2838,3.2839,3.2887,3.2893,3.2898,0,0,0,0,0,0,3.3317,3.3252,3.3232,3.321,3.3174,3.3117,3.3109,3.3083,3.305,3.3047,3.2995,3.2983,3.296,3.2931,3.293,3.2896,3.2875,3.2874,3.2916,3.292,3.2925,3.2932,3.2889,0,0,0,0,0,3.3327,3.3303,3.3246,3.3232,3.3215,3.3166,3.3148,3.3119,3.308,3.3064,3.3025,3.2987,3.2956,3.2936,3.2904,3.2885,3.2872,3.288,3.2885,3.2889,3.2889,3.2877,3.288,3.2843,3.2843,3.2843,0,0,3.3345,3.3307,3.3294,3.3242,3.3211,3.3187,3.3153,3.3129,3.311,3.306,3.3031,3.3001,3.2955,3.2932,3.2919,3.2907,3.2896,3.289,3.2893,3.2891,3.2878,3.2882,3.2885,3.2844,3.2844,3.2844,0,0,3.3367,3.3336,3.3321,3.3291,3.3246,3.3213,3.3209,3.3155,3.3134,3.3104,3.3067,3.3043,3.299,3.296,3.2937,3.2949,3.2921,3.2939,3.2962,3.2952,3.2955,3.2957,3.2962,3.2964,3.2939,3.294,3.294,0,3.3396,3.3359,3.3316,3.3294,3.3272,3.3227,3.3212,3.3184,3.313,3.3116,3.3103,3.3037,3.3003,3.2972,3.2975,3.2958,3.2952,3.2946,3.2958,3.296,3.2961,3.2966,3.2968,3.2942,3.2942,3.2942,3.2941,0,3.3397,3.3372,3.3365,3.3316,3.3293,3.3275,3.3228,3.321,3.3183,3.3151,3.3122,3.308,3.3039,3.3029,3.3002,3.2994,3.2989,3.2968,3.2946,3.2968,3.2972,3.2973,3.2946,3.2945,3.2944,3.2944,0,0,3.3451,3.3379,3.3377,3.3354,3.3301,3.328,3.3259,3.3221,3.3207,3.317,3.3152,3.3109,3.309,3.3064,3.3033,3.3024,3.3037,3.3004,3.3002,3.3013,3.3027,3.3044,3.3047,3.3018,3.3018,3.3018,3.3031,0,3.3465,3.3427,3.3388,3.3363,3.334,3.3297,3.3279,3.3244,3.3213,3.3188,3.3154,3.3125,3.3101,3.3086,3.3074,3.3038,3.3039,3.3036,3.3,3.3,3.3014,3.3048,3.3065,3.308,3.3032,3.3032,3.3032,0,3.3478,3.3446,3.342,3.3369,3.3358,3.3343,3.3304,3.3281,3.324,3.3219,3.3191,3.3159,3.3134,3.3115,3.3081,3.308,3.3063,3.3043,3.3042,3.3038,3.3018,3.3046,3.3083,3.3086,3.3034,3.3034,3.3033,0,3.3521,3.3471,3.3449,3.3431,3.3371,3.3362,3.3336,3.3295,3.3275,3.3241,3.3227,3.3191,3.3171,3.3143,3.3102,3.3091,3.3072,3.3049,3.3054,3.3055,3.3052,3.3053,3.3088,3.304,3.304,3.304,3.304,0,3.3542,3.3528,3.3468,3.3454,3.3437,3.3392,3.3375,3.3346,3.331,3.3289,3.3249,3.323,3.3176,3.3151,3.3119,3.3096,3.3087,3.3069,3.306,3.3073,3.3076,3.3062,3.306,3.304,3.304,3.304,3.304,0,3.3588,3.3547,3.352,3.3467,3.3453,3.3443,3.3396,3.3381,3.3349,3.3323,3.3315,3.3264,3.3232,3.3188,3.3143,3.3121,3.3103,3.3089,3.3117,3.3113,3.312,3.312,3.3148,3.315,3.31,3.31,3.3101,0,3.3605,3.3594,3.3539,3.3523,3.35,3.3474,3.3454,3.3408,3.3388,3.3341,3.3332,3.3298,3.3268,3.322,3.3179,3.3144,3.3129,3.3141,3.3124,3.3137,3.3131,3.3132,3.3131,3.3146,3.3147,3.3147,3.3148,0,3.364,3.3621,3.3593,3.3559,3.3536,3.3506,3.3475,3.3464,3.3411,3.3391,3.3359,3.3336,3.3291,3.3257,3.3217,3.319,3.3161,3.3154,3.3153,3.3167,3.3184,3.3176,3.313,3.3154,3.3153,3.3153,3.3152,3.3152,3.3673,3.3661,3.3621,3.3592,3.3564,3.3535,3.3519,3.3485,3.3458,3.3418,3.3392,3.3362,3.3322,3.3265,3.324,3.3215,3.3203,3.3201,3.3201,3.3202,3.3207,3.3188,3.3207,3.3207,3.3207,3.3206,3.3206,0,3.3707,3.3679,3.3653,3.3611,3.3588,3.3563,3.3527,3.3509,3.3483,3.3448,3.3421,3.3384,3.3352,3.3308,3.3273,3.3261,3.3247,3.3254,3.3254,3.3249,3.3219,3.3224,3.3266,3.3266,3.3266,3.3266,3.3266,3.3266,3.3722,3.3701,3.3677,3.3641,3.3613,3.3584,3.3565,3.3539,3.3511,3.3473,3.3446,3.3418,3.338,3.3341,3.3311,3.3298,3.3288,3.3299,3.3283,3.3256,3.3251,3.3246,3.325,3.3297,3.3297,3.3314,3.3315,3.3315]}]]